Peru, IN

1:37 PM EDT on July 22, 2017 (GMT -0400)
Grissom Air Reserve Base

Weather History for KGUS - December, 2013

Change the Weather History Date:

Saturday, December 21, 2013

  Actual Average Record
Temperature  
Mean Temperature 38 °F -  
Max Temperature 42 °F 30 °F 53 °F (2015)
Min Temperature 33 °F 20 °F -2 °F (2008)
Degree Days  
Heating Degree Days 28    
Moisture  
Dew Point 37 °F    
Average Humidity 100    
Maximum Humidity 100    
Minimum Humidity 100    
Precipitation  
Precipitation 1.76 in - - ()
Sea Level Pressure  
Sea Level Pressure 29.71 in    
Wind  
Wind Speed 10 mph (North)    
Max Wind Speed 23 mph    
Max Gust Speed 25 mph    
Visibility 7 miles    
Events Rain    
Averages and records for this station are not official NWS values.
T = Trace of Precipitation, MM = Missing Value Source: NWS Daily Summary

Daily Weather History Graph

Daily Weather History Graph

Search for Another Location

Airport or City:

Trip Planner

Search our weather history database for the weather conditions in past years. The results will help you decide how hot, cold, wet, or windy it might be!

Date:

Astronomy

Dec. 21, 2013 Rise Set
Actual Time 8:05 AM EST 5:20 PM EST
Civil Twilight 7:34 AM EST 5:51 PM EST
Nautical Twilight 6:59 AM EST 6:26 PM EST
Astronomical Twilight 6:26 AM EST 6:59 PM EST
Moon 9:37 PM EST (12/21) 10:29 AM EST (12/21)
Length of Visible Light 10h 17m
Length of Day
9h 15m
Waning Gibbous, 84% of the Moon is Illuminated
Dec 21
Waning Gibbous
Dec 25
Last Quarter
Jan 1
New
Jan 7
First Quarter
Jan 15
Full

Hourly Weather History & Observations

Time (EST) Temp. Windchill Dew Point Humidity Pressure Visibility Wind Dir Wind Speed Gust Speed Precip Events Conditions
12:08 AM 42.8 °F 36.2 °F 42.8 °F 100% 29.77 in 10.0 mi West 12.7 mph - N/A   Light Drizzle
12:13 AM 42.8 °F 35.8 °F 42.8 °F 100% 29.77 in 9.0 mi West 13.8 mph - N/A Rain Light Rain
12:23 AM 42.8 °F 36.6 °F 42.8 °F 100% 29.77 in 9.0 mi West 11.5 mph - N/A   Light Drizzle
12:28 AM 42.8 °F 36.2 °F 42.8 °F 100% 29.77 in 10.0 mi West 12.7 mph - N/A   Overcast
12:58 AM 41.0 °F 33.9 °F 41.0 °F 100% 29.79 in 10.0 mi West 12.7 mph - 0.01 in   Overcast
1:00 AM 41.0 °F 33.9 °F 41.0 °F 100% 29.77 in 10.0 mi West 12.7 mph - N/A   Overcast
1:14 AM 41.0 °F 35.2 °F 41.0 °F 100% 29.77 in 10.0 mi West 9.2 mph - N/A   Light Drizzle
1:19 AM 41.0 °F 35.8 °F 41.0 °F 100% 29.77 in 10.0 mi West 8.1 mph - N/A   Light Drizzle
1:29 AM 39.2 °F 33.0 °F 39.2 °F 100% 29.77 in 10.0 mi West 9.2 mph - N/A   Overcast
1:33 AM 39.2 °F 33.6 °F 39.2 °F 100% 29.77 in 10.0 mi West 8.1 mph - N/A   Light Drizzle
1:48 AM 39.2 °F 32.5 °F 39.2 °F 100% 29.77 in 9.0 mi WNW 10.4 mph - N/A Rain Light Rain
1:53 AM 39.2 °F 32.5 °F 39.2 °F 100% 29.77 in 9.0 mi WNW 10.4 mph - N/A Rain Light Rain
1:58 AM 38.8 °F 33.2 °F 38.8 °F 100% 29.79 in 10.0 mi West 8.1 mph - 0.00 in Rain Light Rain
2:03 AM 39.2 °F 32.0 °F 39.2 °F 100% 29.77 in 10.0 mi WNW 11.5 mph - N/A Rain Light Rain
2:23 AM 37.4 °F 30.3 °F 37.4 °F 100% 29.78 in 10.0 mi West 10.4 mph - N/A Rain Light Rain
2:38 AM 37.4 °F 30.8 °F 37.4 °F 100% 29.78 in 10.0 mi West 9.2 mph - N/A Rain Light Rain
2:43 AM 37.4 °F 32.8 °F 37.4 °F 100% 29.78 in 10.0 mi West 5.8 mph - N/A Rain Light Rain
2:48 AM 37.4 °F 31.4 °F 37.4 °F 100% 29.78 in 8.0 mi West 8.1 mph - N/A Rain Light Rain
2:52 AM 37.4 °F 30.8 °F 37.4 °F 100% 29.79 in 9.0 mi West 9.2 mph - N/A Rain Light Rain
2:58 AM 37.0 °F 31.0 °F 37.0 °F 100% 29.82 in 9.0 mi WNW 8.1 mph - 0.01 in Rain Light Rain
3:03 AM 37.4 °F 32.8 °F 37.4 °F 100% 29.78 in 3.0 mi West 5.8 mph - N/A Rain Heavy Rain
3:08 AM 37.4 °F 33.8 °F 37.4 °F 100% 29.77 in 3.0 mi West 4.6 mph - N/A Rain Light Rain
3:13 AM 37.4 °F 33.8 °F 37.4 °F 100% 29.77 in 4.0 mi West 4.6 mph - N/A Rain Rain
3:18 AM 37.4 °F 34.9 °F 37.4 °F 100% 29.77 in 4.0 mi West 3.5 mph - N/A Rain Light Rain
3:23 AM 37.4 °F - 37.4 °F 100% 29.76 in 5.0 mi NW 1.2 mph - N/A Rain Light Rain
3:38 AM 37.4 °F 32.1 °F 37.4 °F 100% 29.78 in 5.0 mi West 6.9 mph - N/A Rain Light Rain
3:43 AM 37.4 °F 32.8 °F 37.4 °F 100% 29.78 in 3.0 mi West 5.8 mph - N/A Rain Rain
3:48 AM 37.4 °F 30.3 °F 37.4 °F 100% 29.79 in 2.0 mi WNW 10.4 mph - N/A Rain Heavy Rain
3:53 AM 37.4 °F 32.1 °F 37.4 °F 100% 29.79 in 2.5 mi West 6.9 mph - N/A Rain Heavy Rain
3:58 AM 37.4 °F 32.1 °F 37.4 °F 100% 29.80 in 3.0 mi West 6.9 mph - 0.20 in Rain Light Rain
4:03 AM 37.4 °F 32.8 °F 37.4 °F 100% 29.79 in 5.0 mi West 5.8 mph - N/A Rain Light Rain
4:08 AM 35.6 °F 29.2 °F 35.6 °F 100% 29.79 in 5.0 mi West 8.1 mph - N/A Rain Light Rain
4:28 AM 35.6 °F 27.5 °F 35.6 °F 100% 29.81 in 9.0 mi West 11.5 mph - N/A Rain Light Rain
4:43 AM 35.6 °F 28.6 °F 35.6 °F 100% 29.79 in 10.0 mi WNW 9.2 mph - N/A Rain Light Rain
4:48 AM 35.6 °F 28.6 °F 35.6 °F 100% 29.79 in 10.0 mi WNW 9.2 mph - N/A Rain Light Rain
4:53 AM 35.6 °F 29.9 °F 35.6 °F 100% 29.78 in 10.0 mi WNW 6.9 mph - N/A Rain Light Rain
4:58 AM 35.4 °F 30.5 °F 35.4 °F 100% 29.79 in 10.0 mi West 5.8 mph - 0.03 in Rain Light Rain
5:23 AM 35.6 °F 32.8 °F 35.6 °F 100% 29.77 in 9.0 mi WNW 3.5 mph - N/A   Light Drizzle
5:48 AM 35.6 °F 29.9 °F 35.6 °F 100% 29.78 in 4.0 mi WNW 6.9 mph - N/A Rain Light Rain
5:53 AM 35.6 °F 30.7 °F 35.6 °F 100% 29.78 in 6.0 mi WNW 5.8 mph - N/A Rain Light Rain
5:58 AM 35.1 °F 29.3 °F 35.1 °F 100% 29.81 in 8.0 mi WNW 6.9 mph - 0.01 in Rain Light Rain
6:58 AM 34.3 °F - 34.3 °F 100% 29.79 in 8.0 mi NNW 2.3 mph - 0.08 in Rain Light Rain
7:55 AM 34.3 °F - 34.3 °F 100% 29.79 in 7.0 mi Calm Calm - 0.08 in Rain Light Rain
8:32 AM 33.8 °F 28.6 °F 33.8 °F 100% 29.81 in 3.0 mi WNW 5.8 mph - N/A Rain Rain
8:58 AM 34.3 °F 31.4 °F 34.3 °F 100% 29.83 in 4.0 mi NNW 3.5 mph - 0.13 in Rain Rain
9:58 AM 34.7 °F 29.6 °F 34.7 °F 100% 29.82 in 5.0 mi East 5.8 mph - 0.07 in Rain Light Rain
10:30 AM 35.6 °F 29.9 °F 35.6 °F 100% 29.77 in 10.0 mi East 6.9 mph - N/A Rain Light Rain
10:58 AM 35.6 °F 29.9 °F 35.6 °F 100% 29.78 in 10.0 mi East 6.9 mph - 0.03 in   Overcast
11:58 AM 36.9 °F 31.4 °F 36.9 °F 100% 29.78 in 10.0 mi NNE 6.9 mph - 0.00 in   Light Drizzle
12:58 PM 36.9 °F 30.7 °F 36.9 °F 100% 29.78 in 3.0 mi NNW 8.1 mph - 0.06 in Rain Rain
1:58 PM 36.9 °F 30.7 °F 36.9 °F 100% 29.76 in 4.0 mi NNE 8.1 mph - 0.11 in Rain Rain
2:08 PM 37.4 °F 31.4 °F 37.4 °F 100% 29.73 in 5.0 mi NNE 8.1 mph - N/A Rain Rain
2:58 PM 37.2 °F 31.9 °F 37.2 °F 100% 29.76 in 6.0 mi NNE 6.9 mph - 0.07 in Rain Light Rain
3:33 PM 37.4 °F 30.8 °F 37.4 °F 100% 29.71 in 5.0 mi NE 9.2 mph - N/A Rain Rain
3:38 PM 37.4 °F 30.3 °F 37.4 °F 100% 29.72 in 6.0 mi NE 10.4 mph - N/A Rain Rain
3:43 PM 37.4 °F 30.3 °F 37.4 °F 100% 29.71 in 6.0 mi NE 10.4 mph - N/A Rain Rain
3:58 PM 37.2 °F 30.0 °F 37.2 °F 100% 29.73 in 6.0 mi NE 10.4 mph - 0.09 in Rain Light Rain
4:28 PM 37.4 °F 31.4 °F 37.4 °F 100% 29.69 in 10.0 mi ENE 8.1 mph - N/A Rain Light Rain
4:33 PM 37.4 °F 29.3 °F 37.4 °F 100% 29.70 in 10.0 mi ENE 12.7 mph - N/A Rain Light Rain
4:38 PM 37.4 °F 31.4 °F 37.4 °F 100% 29.68 in 10.0 mi ENE 8.1 mph - N/A Rain Light Rain
4:58 PM 37.2 °F 29.6 °F 37.2 °F 100% 29.71 in 9.0 mi ENE 11.5 mph - 0.03 in Rain Light Rain
5:33 PM 37.4 °F 28.9 °F 37.4 °F 100% 29.67 in 7.0 mi ENE 13.8 mph - N/A Rain Light Rain
5:58 PM 37.0 °F 29.3 °F 37.0 °F 100% 29.70 in 6.0 mi ENE 11.5 mph - 0.05 in Rain Rain
6:03 PM 37.4 °F 30.3 °F 37.4 °F 100% 29.67 in 5.0 mi ENE 10.4 mph - N/A Rain Rain
6:28 PM 37.4 °F 30.3 °F 37.4 °F 100% 29.66 in 5.0 mi ENE 10.4 mph - N/A Rain Rain
6:33 PM 37.4 °F 30.3 °F 37.4 °F 100% 29.66 in 5.0 mi ENE 10.4 mph - N/A Rain Rain
6:38 PM 37.4 °F 30.3 °F 37.4 °F 100% 29.66 in 4.0 mi ENE 10.4 mph - N/A Rain Heavy Rain
6:43 PM 37.4 °F 30.8 °F 37.4 °F 100% 29.66 in 4.0 mi ENE 9.2 mph - N/A Rain Rain
6:53 PM 37.4 °F 29.3 °F 37.4 °F 100% 29.65 in 5.0 mi NE 12.7 mph - N/A Rain Light Rain
6:58 PM 37.2 °F 29.1 °F 37.2 °F 100% 29.68 in 6.0 mi ENE 12.7 mph - 0.20 in Rain Light Rain
7:13 PM 37.4 °F 29.3 °F 37.4 °F 100% 29.64 in 4.0 mi NE 12.7 mph - N/A Rain Rain
7:23 PM 37.4 °F 30.8 °F 37.4 °F 100% 29.65 in 5.0 mi NNE 9.2 mph - N/A Rain Rain
7:28 PM 37.4 °F 29.8 °F 37.4 °F 100% 29.65 in 5.0 mi NNE 11.5 mph - N/A Rain Heavy Rain
7:48 PM 37.4 °F 30.3 °F 37.4 °F 100% 29.64 in 5.0 mi North 10.4 mph - N/A Rain Heavy Rain
7:58 PM 36.9 °F 27.5 °F 36.9 °F 100% 29.67 in 5.0 mi NNE 16.1 mph 21.9 mph 0.18 in Rain Heavy Rain
8:28 PM 35.6 °F 25.2 °F 35.6 °F 100% 29.61 in 7.0 mi NE 18.4 mph - N/A Rain Rain
8:58 PM 35.8 °F 24.2 °F 35.8 °F 100% 29.58 in 5.0 mi NE 23.0 mph - 0.11 in Rain Light Rain
9:23 PM 35.6 °F 25.5 °F 35.6 °F 100% 29.56 in 10.0 mi ENE 17.3 mph 25.3 mph N/A Rain Light Rain
9:28 PM 35.6 °F 25.9 °F 35.6 °F 100% 29.57 in 9.0 mi ENE 16.1 mph - N/A Rain Light Rain
9:48 PM 35.6 °F 25.9 °F 35.6 °F 100% 29.55 in 4.0 mi NE 16.1 mph - N/A Rain Heavy Rain
9:53 PM 35.6 °F 25.2 °F 35.6 °F 100% 29.54 in 5.0 mi NE 18.4 mph - N/A Rain Rain
9:58 PM 35.6 °F 26.2 °F 35.6 °F 100% 29.56 in 6.0 mi NE 15.0 mph - 0.09 in Rain Light Rain
10:08 PM 35.6 °F 25.9 °F 35.6 °F 100% 29.52 in 4.0 mi NE 16.1 mph - N/A Rain Heavy Rain
10:13 PM 35.6 °F 26.2 °F 35.6 °F 100% 29.51 in 3.0 mi NE 15.0 mph - N/A Rain Heavy Rain
10:18 PM 35.6 °F 26.2 °F 35.6 °F 100% 29.52 in 5.0 mi NE 15.0 mph - N/A Rain Rain
10:23 PM 35.6 °F 26.2 °F 35.6 °F 100% 29.53 in 6.0 mi NE 15.0 mph - N/A Rain Light Rain
10:38 PM 35.6 °F 27.1 °F 35.6 °F 100% 29.53 in 4.0 mi NNE 12.7 mph 23.0 mph N/A Rain Heavy Rain
10:43 PM 35.6 °F 26.2 °F 35.6 °F 100% 29.56 in 5.0 mi NNE 15.0 mph 23.0 mph N/A Rain Light Rain
10:58 PM 35.4 °F 26.8 °F 35.4 °F 100% 29.57 in 9.0 mi NNE 12.7 mph - 0.11 in Rain Light Rain
11:03 PM 35.6 °F 25.2 °F 35.6 °F 100% 29.52 in 10.0 mi NE 18.4 mph 20.7 mph N/A Rain Light Rain
11:23 PM 35.6 °F 27.1 °F 35.6 °F 100% 29.55 in 10.0 mi NE 12.7 mph - N/A   Light Drizzle
11:30 PM 35.6 °F 25.5 °F 35.6 °F 100% 29.53 in 10.0 mi NE 17.3 mph - N/A Rain Light Rain
11:58 PM 35.1 °F 27.9 °F 35.1 °F 100% 29.60 in 10.0 mi NE 9.2 mph 20.7 mph 0.01 in   Light Drizzle